Volver al catálogo

STARLINK-30515

ActivoComunicacionesVLEO
NORAD 57983·PAYLOAD·🇺🇸 United States

Lanzado Sep 30, 2023 desde Cape Canaveral Space Force Station

Loading…

Próximos Pases (próximas 24 horas)

TLE

ActualizadoSource: CelesTrak SupGP

Época: Sep 15, 2026, 02:20 UTC

1 57983C 23151V   26258.09770833 -.00026650  00000+0 -96540-3 0  2589
2 57983  43.0025   4.3413 0001815 260.5763  29.6115 15.27585731    16

Sigue STARLINK-30515 en tiempo real con AllMySat

Download on the App Store